Washington, IA

4:54 PM CDT on March 24, 2017 (GMT -0500)
Washington Municipal

Weather History for KAWG - February, 2013

Change the Weather History Date:

Thursday, February 21, 2013

  Actual Average Record
Temperature  
Mean Temperature 21 °F -  
Max Temperature 28 °F 37 °F 68 °F (2017)
Min Temperature 14 °F 23 °F 3 °F (2008)
Degree Days  
Heating Degree Days 44    
Moisture  
Dew Point 20 °F    
Average Humidity 88    
Maximum Humidity 100    
Minimum Humidity 74    
Precipitation  
Precipitation 0.01 in - - ()
Sea Level Pressure  
Sea Level Pressure 30.13 in    
Wind  
Wind Speed 13 mph (East)    
Max Wind Speed 26 mph    
Max Gust Speed 31 mph    
Visibility 7 miles    
Events Snow    
Averages and records for this station are not official NWS values.
T = Trace of Precipitation, MM = Missing Value Source: NWS Daily Summary

Daily Weather History Graph

Daily Weather History Graph

Search for Another Location

Airport or City:

Trip Planner

Search our weather history database for the weather conditions in past years. The results will help you decide how hot, cold, wet, or windy it might be!

Date:

Astronomy

Feb. 21, 2013 Rise Set
Actual Time 6:52 AM CST 5:48 PM CST
Civil Twilight 6:24 AM CST 6:16 PM CST
Nautical Twilight 5:52 AM CST 6:48 PM CST
Astronomical Twilight 5:20 AM CST 7:20 PM CST
Moon 2:01 PM CST (2/21) 3:59 AM CST (2/21)
Length of Visible Light 11h 51m
Length of Day
10h 55m
Waxing Gibbous, 84% of the Moon is Illuminated
Feb 21
Waxing Gibbous
Feb 25
Full
Mar 4
Last Quarter
Mar 11
New
Mar 19
First Quarter

Hourly Weather History & Observations

Time (CST) Temp. Windchill Dew Point Humidity Pressure Visibility Wind Dir Wind Speed Gust Speed Precip Events Conditions
12:15 AM 21.2 °F 10.1 °F 15.8 °F 80% 30.34 in 10.0 mi East 10.4 mph - N/A   Clear
12:35 AM 19.4 °F 8.6 °F 15.8 °F 86% 30.34 in 10.0 mi East 9.2 mph - N/A   Clear
12:55 AM 19.4 °F 8.6 °F 15.8 °F 86% 30.34 in 10.0 mi East 9.2 mph - N/A   Clear
1:15 AM 17.6 °F 7.3 °F 15.8 °F 93% 30.34 in 10.0 mi East 8.1 mph - N/A   Clear
1:35 AM 17.6 °F 9.3 °F 14.0 °F 86% 30.34 in 10.0 mi East 5.8 mph - N/A   Clear
1:55 AM 17.6 °F 10.7 °F 14.0 °F 86% 30.35 in 10.0 mi East 4.6 mph - N/A   Clear
2:15 AM 15.8 °F 10.2 °F 12.2 °F 86% 30.36 in 10.0 mi ESE 3.5 mph - N/A   Clear
2:35 AM 15.8 °F 8.6 °F 12.2 °F 86% 30.35 in 10.0 mi East 4.6 mph - N/A   Clear
2:55 AM 14.0 °F 8.2 °F 10.4 °F 86% 30.35 in 10.0 mi East 3.5 mph - N/A   Clear
3:15 AM 14.0 °F 6.5 °F 12.2 °F 93% 30.33 in 10.0 mi East 4.6 mph - N/A   Scattered Clouds
3:35 AM 14.0 °F 8.2 °F 12.2 °F 93% 30.32 in 10.0 mi ENE 3.5 mph - N/A   Scattered Clouds
3:55 AM 15.8 °F 5.1 °F 12.2 °F 86% 30.29 in 10.0 mi East 8.1 mph - N/A   Clear
4:15 AM 15.8 °F 5.1 °F 12.2 °F 86% 30.30 in 10.0 mi ENE 8.1 mph - N/A   Clear
4:35 AM 15.8 °F 5.1 °F 12.2 °F 86% 30.29 in 10.0 mi ENE 8.1 mph - N/A   Clear
4:55 AM 15.8 °F 6.1 °F 12.2 °F 86% 30.31 in 10.0 mi ENE 6.9 mph - N/A   Clear
5:15 AM 14.0 °F 5.1 °F 12.2 °F 93% 30.33 in 10.0 mi East 5.8 mph - N/A   Clear
5:55 AM 14.0 °F 1.2 °F 12.2 °F 93% 30.27 in 10.0 mi ENE 10.4 mph - N/A   Clear
6:15 AM 15.8 °F 1.4 °F 12.2 °F 86% 30.26 in 10.0 mi ENE 13.8 mph - N/A   Clear
6:35 AM 15.8 °F 4.2 °F 12.2 °F 86% 30.28 in 10.0 mi East 9.2 mph - N/A   Clear
6:55 AM 17.6 °F 7.3 °F 12.2 °F 79% 30.28 in 10.0 mi East 8.1 mph - N/A   Clear
7:15 AM 17.6 °F 7.3 °F 14.0 °F 86% 30.29 in 10.0 mi ESE 8.1 mph - N/A   Clear
7:35 AM 17.6 °F 7.3 °F 14.0 °F 86% 30.30 in 10.0 mi ESE 8.1 mph - N/A   Clear
7:55 AM 17.6 °F 4.3 °F 14.0 °F 86% 30.27 in 10.0 mi East 12.7 mph - N/A   Clear
8:15 AM 19.4 °F 4.5 °F 14.0 °F 80% 30.25 in 10.0 mi East 17.3 mph - N/A   Clear
8:35 AM 19.4 °F 6.6 °F 14.0 °F 80% 30.29 in 10.0 mi ESE 12.7 mph - N/A   Clear
8:55 AM 19.4 °F 7.2 °F 15.8 °F 86% 30.29 in 10.0 mi East 11.5 mph - N/A   Clear
9:15 AM 19.4 °F 6.6 °F 15.8 °F 86% 30.28 in 10.0 mi East 12.7 mph - N/A   Clear
9:35 AM 21.2 °F 7.8 °F 15.8 °F 80% 30.28 in 10.0 mi East 15.0 mph 23.0 mph N/A   Clear
9:55 AM 21.2 °F 6.0 °F 17.6 °F 86% 30.27 in 10.0 mi East 19.6 mph 25.3 mph N/A   Clear
10:15 AM 21.2 °F 5.6 °F 15.8 °F 80% 30.25 in 10.0 mi East 20.7 mph - N/A   Clear
10:35 AM 21.2 °F 6.4 °F 17.6 °F 86% 30.24 in 10.0 mi East 18.4 mph 24.2 mph N/A   Clear
10:55 AM 23.0 °F 8.0 °F 17.6 °F 80% 30.23 in 10.0 mi East 20.7 mph 26.5 mph N/A   Clear
11:15 AM 24.8 °F 10.3 °F 17.6 °F 74% 30.23 in 10.0 mi East 20.7 mph 26.5 mph N/A   Clear
11:35 AM 24.8 °F 9.6 °F 19.4 °F 80% 30.22 in 10.0 mi East 23.0 mph - N/A   Scattered Clouds
11:55 AM 26.6 °F 12.7 °F 19.4 °F 74% 30.21 in 10.0 mi East 20.7 mph 24.2 mph N/A   Scattered Clouds
12:15 PM 26.6 °F 13.8 °F 19.4 °F 74% 30.20 in 10.0 mi East 17.3 mph - N/A   Mostly Cloudy
12:35 PM 26.6 °F 12.0 °F 19.4 °F 74% 30.15 in 10.0 mi East 23.0 mph - N/A   Mostly Cloudy
12:55 PM 26.6 °F 12.7 °F 19.4 °F 74% 30.15 in 10.0 mi East 20.7 mph 25.3 mph N/A   Mostly Cloudy
1:15 PM 26.6 °F 12.0 °F 19.4 °F 74% 30.14 in 10.0 mi East 23.0 mph 26.5 mph N/A   Mostly Cloudy
1:35 PM 26.6 °F 12.7 °F 19.4 °F 74% 30.12 in 10.0 mi East 20.7 mph 25.3 mph N/A   Mostly Cloudy
1:55 PM 26.6 °F 12.7 °F 21.2 °F 80% 30.11 in 10.0 mi East 20.7 mph - N/A   Mostly Cloudy
2:15 PM 26.6 °F 12.7 °F 21.2 °F 80% 30.11 in 10.0 mi East 20.7 mph 26.5 mph N/A   Overcast
2:35 PM 26.6 °F 12.7 °F 21.2 °F 80% 30.11 in 10.0 mi East 20.7 mph - N/A   Overcast
2:55 PM 26.6 °F 12.4 °F 21.2 °F 80% 30.10 in 10.0 mi East 21.9 mph 25.3 mph N/A   Overcast
3:15 PM 26.6 °F 12.4 °F 23.0 °F 86% 30.06 in 10.0 mi East 21.9 mph 27.6 mph N/A   Overcast
3:35 PM 26.6 °F 13.4 °F 23.0 °F 86% 30.06 in 5.0 mi East 18.4 mph 24.2 mph N/A Snow Light Snow
3:55 PM 26.6 °F 13.1 °F 24.8 °F 93% 30.06 in 2.0 mi East 19.6 mph - N/A Snow Light Snow
4:15 PM 26.6 °F 13.8 °F 24.8 °F 93% 30.03 in 0.5 mi East 17.3 mph 23.0 mph N/A Snow Snow
4:35 PM 26.6 °F 12.7 °F 26.6 °F 100% 29.99 in 0.5 mi East 20.7 mph 24.2 mph N/A Snow Snow
4:55 PM 26.6 °F 12.7 °F 26.6 °F 100% 29.99 in 0.5 mi East 20.7 mph 27.6 mph N/A Snow Light Snow
5:15 PM 26.6 °F 12.4 °F 26.6 °F 100% 29.97 in 0.2 mi East 21.9 mph 26.5 mph N/A Snow Light Snow
5:35 PM 28.4 °F 15.1 °F 26.6 °F 93% 29.96 in 1.5 mi East 20.7 mph 28.8 mph N/A Snow Light Snow
5:55 PM 26.6 °F 11.7 °F 26.6 °F 100% 29.95 in 2.0 mi East 24.2 mph 27.6 mph N/A Snow Light Snow
6:15 PM 26.6 °F 13.1 °F 26.6 °F 100% 29.94 in 2.0 mi ENE 19.6 mph 28.8 mph N/A Snow Light Snow
6:35 PM 26.6 °F 13.4 °F 26.6 °F 100% 29.94 in 1.2 mi ENE 18.4 mph - N/A Snow Light Snow
6:55 PM 28.4 °F 16.2 °F 26.6 °F 93% 29.94 in 0.2 mi ENE 17.3 mph - N/A Snow Snow
7:15 PM 28.4 °F 15.4 °F 26.6 °F 93% 29.92 in 0.2 mi East 19.6 mph - N/A Snow Heavy Snow
7:35 PM 28.4 °F 16.6 °F 28.4 °F 100% 29.92 in 0.2 mi East 16.1 mph - N/A Snow Heavy Snow
7:55 PM 28.4 °F 15.4 °F 28.4 °F 100% 29.89 in 0.2 mi East 19.6 mph - 0.01 in Snow Snow
8:15 PM 28.4 °F 15.1 °F 28.4 °F 100% 29.89 in 0.2 mi East 20.7 mph 24.2 mph N/A Snow Snow
8:35 PM 28.4 °F 13.5 °F 28.4 °F 100% 29.88 in 0.2 mi East 26.5 mph 31.1 mph N/A Snow Snow
8:55 PM 28.4 °F 15.4 °F 26.6 °F 93% 29.88 in 0.2 mi East 19.6 mph 27.6 mph N/A Snow Heavy Snow
9:15 PM 26.6 °F 12.7 °F 26.6 °F 100% 29.89 in 0.2 mi East 20.7 mph - N/A Snow Heavy Snow
9:35 PM 26.6 °F 13.4 °F 26.6 °F 100% 29.89 in 0.5 mi East 18.4 mph 25.3 mph N/A Snow Light Snow
9:55 PM 26.6 °F 12.4 °F 26.6 °F 100% 29.89 in 0.5 mi East 21.9 mph 31.1 mph N/A Snow Light Snow
10:15 PM 26.6 °F 12.0 °F 26.6 °F 100% 29.88 in 0.5 mi East 23.0 mph 26.5 mph N/A Snow Light Snow
10:35 PM 26.6 °F 12.4 °F 24.8 °F 93% 29.87 in 0.5 mi East 21.9 mph 26.5 mph N/A Snow Light Snow
10:55 PM 26.6 °F 12.0 °F 24.8 °F 93% 29.87 in 1.5 mi East 23.0 mph 26.5 mph N/A Snow Light Snow
11:15 PM 26.6 °F 13.4 °F 24.8 °F 93% 29.86 in 1.2 mi East 18.4 mph - N/A Snow Light Snow
11:35 PM 24.8 °F 11.5 °F 24.8 °F 100% 29.85 in 0.2 mi East 17.3 mph - N/A Snow Light Snow
11:55 PM 24.8 °F 11.9 °F 24.8 °F 100% 29.84 in 0.8 mi East 16.1 mph - N/A Snow Light Snow